Temperature
16 16 17 17 20 21 22 22 21 21 21 20 19 20 22 22 22 20 16 16 16 16 15 15 15 15 15 15 15 15 15 15 15 15 15 15 15 15 15 15 15 15 14 14 14 14 14 14 14
16 16 16 18 21 21 22 22 21 21 20 18 18 19 20 20 17 16 15 16 16 15 15 15 15 15 15 15 15 15 15 15 15 15 15 15 15 15 15 15 14 14 14 14 14 14 14 14 14
15 16 17 20 20 22 22 21 21 19 18 18 19 18 19 18 15 15 15 15 15 15 15 15 15 15 15 15 15 15 15 15 15 15 15 15 15 15 14 14 14 14 14 14 14 14 14 14 14
15 16 17 19 20 21 21 20 19 19 18 17 18 19 16 15 14 14 15 15 15 14 14 15 15 15 15 15 15 14 14 14 15 14 14 14 14 14 14 14 14 14 14 14 14 14 14 14 14
15 17 19 19 19 20 19 18 18 19 19 18 18 19 17 14 15 15 15 15 14 14 14 15 15 14 14 14 14 14 14 14 14 14 14 14 14 14 14 14 14 14 14 14 14 14 14 14 14
15 18 19 19 20 19 18 17 17 19 19 17 17 18 16 14 14 15 14 14 14 14 14 14 14 14 14 14 14 14 14 14 14 14 14 14 14 14 14 14 14 14 14 14 14 14 14 14 14
16 18 19 19 19 19 18 16 17 18 18 17 17 18 16 14 14 14 14 14 14 14 14 14 14 14 14 14 14 14 14 14 14 14 14 14 14 14 14 14 14 14 14 14 14 14 14 14 14
14 17 17 18 18 18 17 15 15 16 17 15 15 17 17 14 14 14 14 13 13 13 13 13 14 13 14 14 14 14 14 14 14 14 14 14 14 14 14 14 14 14 13 13 13 14 14 14 14
13 16 17 17 17 17 15 15 14 13 14 14 13 14 13 13 13 13 13 13 13 13 13 13 13 13 13 13 13 13 13 13 13 13 13 13 13 13 13 13 13 13 13 13 13 13 13 13 13
14 16 17 16 16 16 15 15 14 14 15 14 13 13 13 13 13 13 13 13 13 13 13 13 13 13 13 13 13 13 13 13 13 13 13 13 13 13 13 13 13 13 13 13 13 13 13 13 12
14 15 15 13 13 13 14 13 13 15 15 15 14 13 12 12 12 12 12 12 12 12 12 13 13 13 13 13 13 13 13 13 13 13 13 13 13 13 13 13 13 13 13 13 13 13 12 12 12
13 12 12 12 11 12 13 13 13 13 14 12 12 12 12 12 12 12 12 12 12 12 12 12 12 12 12 12 13 13 13 13 13 13 13 13 13 12 12 12 12 12 12 12 12 12 12 12 12
12 12 11 10 10 11 11 12 12 12 11 11 11 11 11 11 11 11 11 11 12 12 12 12 12 12 12 12 12 12 12 12 12 12 12 12 12 12 12 12 12 12 12 12 12 12 12 12 12
11 11 10 10 10 10 11 11 11 11 10 10 10 10 10 10 10 11 11 11 11 11 11 11 11 12 12 12 12 12 12 12 12 12 12 12 12 12 12 12 12 12 11 11 11 11 11 11 11
10 11 11 11 10 10 11 12 12 11 10 10 10 10 9 10 10 10 10 11 11 11 11 11 11 11 11 11 12 12 12 12 12 12 12 12 12 12 12 12 11 11 11 11 11 11 11 11 11
11 11 12 11 10 10 11 13 13 10 10 10 10 9 9 9 9 9 10 10 10 10 10 10 10 11 11 11 11 11 11 11 11 11 11 11 11 11 11 11 11 11 11 11 11 11 11 11 11
11 12 12 11 10 10 11 12 12 9 9 9 9 9 8 8 8 8 9 9 10 10 10 10 10 10 10 10 10 10 11 11 11 11 11 11 11 11 11 11 11 11 11 11 10 10 10 10 10
11 12 11 11 10 10 10 11 11 9 9 9 9 8 8 7 7 8 8 9 9 9 10 10 10 10 10 10 10 10 10 10 10 10 10 10 10 10 10 10 10 10 10 10 10 10 10 10 10
10 10 10 10 9 9 10 10 10 9 9 9 8 8 7 7 7 7 7 8 8 9 9 9 9 9 9 9 9 9 9 9 9 10 10 10 10 10 10 10 10 10 10 10 10 10 9 9 9
9 9 10 9 8 9 9 9 10 9 9 8 8 7 7 6 7 7 7 7 7 8 8 8 8 9 9 9 9 9 9 9 9 9 9 9 9 9 9 9 10 10 9 9 9 9 9 9 9
8 9 9 9 8 8 8 10 10 9 8 7 7 6 6 6 6 7 7 7 7 7 7 8 8 8 8 8 8 8 8 8 8 8 8 9 9 9 9 9 9 9 9 9 9 9 9 9 9
8 8 8 7 8 9 8 10 10 9 8 8 7 6 6 6 5 6 6 6 7 7 7 7 7 8 8 8 7 7 7 8 8 8 8 8 8 8 8 8 8 8 9 9 9 9 9 8 8
7 7 7 7 7 7 7 7 10 8 8 8 8 6 6 5 5 5 5 6 6 6 7 7 7 7 7 7 7 7 7 7 7 7 7 7 8 8 8 8 8 8 8 8 8 8 8 8 8
6 6 6 6 7 7 7 8 10 9 8 8 7 6 5 5 4 4 5 5 5 6 6 6 6 6 6 6 6 6 6 6 6 7 7 7 7 7 7 7 7 8 8 8 8 8 8 8 8
6 7 7 7 7 8 6 7 9 8 7 7 6 5 5 4 4 4 4 4 4 4 5 5 5 5 6 6 6 6 6 6 6 6 6 6 6 7 7 7 7 7 7 7 7 7 7 7 7
6 7 8 8 8 9 5 7 8 7 6 5 5 4 4 3 3 3 3 3 3 4 4 4 5 5 5 5 5 5 5 5 5 5 5 5 5 6 6 6 6 6 7 7 7 7 7 7 6
5 6 6 6 5 6 8 7 7 6 5 5 4 4 4 3 2 2 2 2 2 3 3 4 4 4 4 4 4 5 5 5 5 5 5 5 5 5 5 6 6 6 6 6 6 6 6 6 6
5 5 5 6 6 8 8 8 8 7 6 5 5 4 3 2 2 2 2 2 2 2 2 2 3 3 3 3 4 4 4 4 4 4 4 4 4 4 5 5 5 5 5 5 6 6 5 5 5
4 4 4 5 5 7 8 9 7 6 6 5 4 3 2 2 1 1 1 1 1 1 1 2 2 2 2 3 3 3 3 3 3 3 3 4 4 4 4 4 4 4 5 5 5 5 5 5 5
4 4 4 5 4 4 6 8 6 5 5 4 3 2 2 1 1 1 1 1 1 1 1 1 1 2 2 2 2 2 3 3 3 3 3 3 3 3 3 3 3 4 4 4 4 4 4 4 4
Wind_Speed
6 4 2 3 4 5 8 6 4 5 4 2 1 2 2 2 1 2 3 4 5 7 8 9 10 11 11 11 11 11 11 11 11 11 11 11 12 12 12 12 11 11 11 12 12 12 12 12 12
4 2 3 3 6 9 8 7 7 6 3 3 2 2 2 1 3 3 3 4 5 7 7 8 9 10 10 11 10 11 11 11 11 11 11 11 11 12 12 12 11 11 11 11 11 11 11 11 11
2 2 3 4 7 10 6 5 6 4 3 3 3 1 1 2 2 2 3 5 6 7 7 8 8 10 10 11 10 10 11 11 11 11 11 11 11 11 11 11 11 11 11 11 10 11 11 11 11
2 3 3 7 11 9 5 3 4 5 4 3 3 3 2 2 1 2 4 5 6 7 7 8 8 8 10 10 10 10 11 11 11 11 11 11 11 11 11 11 11 11 11 11 10 10 10 10 10
2 4 6 9 12 7 5 3 5 6 5 4 4 3 3 2 2 3 5 5 6 6 6 7 7 7 8 10 10 10 11 10 10 10 11 11 11 10 11 10 11 11 11 11 10 10 10 9 9
4 5 8 13 13 8 6 5 6 7 6 4 4 4 3 3 3 3 5 5 5 5 5 6 6 6 6 8 9 9 10 10 10 10 10 11 11 11 10 10 10 10 10 10 10 10 10 9 9
5 6 9 11 10 9 6 5 7 7 7 5 3 4 4 3 2 3 4 4 4 4 4 5 5 5 5 6 7 8 9 10 10 10 10 10 11 11 11 11 10 10 10 10 10 10 9 9 9
3 4 7 9 10 9 5 5 3 5 5 1 3 4 3 3 3 4 4 4 3 3 3 3 4 4 5 5 5 6 8 9 10 11 11 10 11 11 11 11 10 10 10 10 9 9 9 9 8
3 6 9 9 8 6 5 5 3 2 3 2 2 1 2 3 4 5 4 3 3 3 3 3 3 3 4 4 5 4 6 8 10 10 11 10 10 10 10 10 10 10 10 10 9 9 9 9 8
5 8 9 4 4 3 4 4 3 4 5 5 4 2 1 4 6 6 6 6 5 5 4 4 4 3 3 3 4 4 4 7 8 9 10 9 8 8 8 9 10 10 10 10 9 9 9 7 6
5 6 4 3 2 2 3 3 3 6 7 7 6 5 3 5 5 6 6 6 6 5 4 4 4 4 4 3 3 3 3 5 6 8 9 8 7 7 7 7 8 9 9 8 9 8 7 6 4
4 3 3 2 2 2 3 3 3 6 5 2 3 2 4 5 6 7 6 5 5 4 4 4 4 4 5 4 3 3 3 3 5 6 8 7 5 6 6 5 6 7 6 6 7 6 6 6 6
6 4 2 2 1 2 3 5 5 6 5 3 2 2 4 5 5 4 4 4 4 4 4 4 4 4 4 4 3 3 3 4 5 5 6 8 6 6 6 5 6 6 6 6 6 6 6 6 6
3 4 2 2 3 3 4 6 5 6 4 3 3 3 3 4 4 3 3 4 4 4 3 3 3 4 4 4 4 3 3 3 4 5 6 7 7 6 6 6 6 6 6 6 6 7 6 6 5
3 3 3 3 3 2 3 7 8 6 4 4 3 3 3 3 3 3 3 3 3 3 3 3 3 3 4 4 4 3 3 3 4 5 6 6 7 7 7 6 6 6 7 7 6 6 6 5 5
3 4 5 3 3 3 5 10 4 2 3 5 4 3 2 2 2 3 3 3 3 3 2 2 2 3 3 3 3 2 3 3 3 4 4 5 6 7 7 6 6 7 7 7 6 6 6 5 5
5 6 7 4 2 3 6 9 3 2 3 5 4 4 3 3 2 3 3 3 3 3 2 2 2 3 3 3 2 2 2 3 3 4 4 5 6 6 5 6 6 8 7 6 6 6 6 6 5
6 7 6 6 2 4 8 10 7 4 4 5 5 4 3 3 3 3 3 2 2 2 2 1 2 3 3 3 2 2 2 2 2 3 4 5 5 6 5 5 6 7 6 6 6 6 6 5 5
5 6 7 5 2 5 9 11 9 6 5 6 5 4 4 3 3 2 2 2 1 1 1 1 1 2 2 3 3 3 3 3 3 3 3 4 5 6 6 5 5 6 6 7 8 6 7 5 5
5 6 6 4 2 4 8 11 9 7 7 6 6 5 4 3 2 2 2 2 2 2 1 2 2 2 3 3 3 3 2 2 3 3 3 4 4 6 6 6 5 6 5 7 8 7 5 5 6
6 7 7 5 4 4 6 8 8 6 5 5 5 5 4 4 4 3 3 2 2 3 3 3 3 3 3 3 3 2 2 2 2 3 3 4 5 5 6 7 6 6 6 6 7 8 8 6 6
7 5 5 5 5 4 3 7 7 5 6 5 5 5 5 4 4 4 3 3 3 4 3 3 3 3 2 3 4 5 4 4 4 3 3 4 4 5 6 6 7 7 6 7 7 7 7 7 6
3 2 4 5 6 5 5 6 6 5 7 7 6 5 5 4 4 4 4 4 4 4 3 3 3 3 3 3 4 5 5 4 3 3 4 4 4 4 5 6 6 6 6 7 7 7 7 7 6
3 3 2 2 4 6 7 7 7 5 7 5 4 4 4 3 4 4 4 4 4 4 4 3 3 3 3 3 3 5 6 5 5 5 4 4 3 3 4 4 5 6 6 6 6 7 8 7 8
4 3 2 3 5 6 3 7 8 3 3 4 4 4 4 3 3 4 4 4 4 4 4 3 3 3 3 3 3 4 5 5 6 5 4 4 3 3 4 4 5 5 6 6 7 7 7 8 8
7 6 4 5 5 4 4 7 5 2 2 4 4 4 4 4 4 4 5 5 5 5 4 4 3 3 3 3 3 3 4 4 4 5 4 4 4 4 4 4 5 6 6 6 7 6 7 7 8
6 6 3 2 2 5 6 6 7 4 4 4 4 3 4 4 4 4 5 5 5 5 4 4 4 4 4 3 3 4 3 4 4 4 4 4 4 4 5 5 5 5 6 6 7 7 7 7 7
2 4 4 4 4 7 6 7 5 4 5 4 3 3 4 4 4 5 5 5 5 4 4 4 4 4 4 3 3 3 3 3 4 4 4 4 5 4 5 5 5 5 5 6 6 6 7 7 7
5 5 4 4 4 5 6 5 2 4 3 3 3 4 4 4 4 5 5 5 5 4 4 4 4 4 4 4 3 3 3 3 3 3 4 5 5 5 5 6 6 6 6 6 6 6 6 7 7
5 6 6 5 5 5 6 6 2 2 2 3 4 4 4 4 4 5 5 5 5 5 5 5 5 4 4 4 4 4 4 4 4 4 4 5 5 5 5 6 6 6 6 6 7 7 7 7 8
Wind_Direction
321 305 250 221 209 222 232 215 205 181 182 165 150 194 206 216 275 66 78 134 130 143 148 155 158 155 156 153 147 143 142 145 146 143 141 140 139 137 133 128 125 123 122 117 112 107 105 102 98
309 277 216 216 224 224 223 210 203 192 151 142 161 191 183 144 47 76 114 137 149 147 150 151 151 155 156 154 152 149 147 146 146 144 144 142 144 142 138 134 130 126 124 120 116 112 109 106 103
263 262 212 205 223 229 218 190 192 170 155 177 165 178 210 98 85 103 104 149 152 146 149 143 142 152 152 153 154 153 152 150 150 148 146 145 142 142 141 139 135 131 127 123 120 116 113 109 108
215 192 206 223 226 229 233 175 170 173 169 185 187 158 132 57 47 81 123 149 150 147 147 139 139 143 152 154 156 156 154 154 155 153 152 149 146 142 140 139 138 135 132 128 123 118 114 114 113
215 204 208 224 231 225 222 223 200 202 187 180 198 188 154 100 55 103 136 147 147 145 144 141 139 136 145 154 158 160 160 161 160 158 156 154 150 146 144 142 142 138 135 133 129 126 122 122 120
189 207 221 227 226 221 218 217 213 219 213 197 202 201 163 109 99 122 141 153 152 147 145 139 135 141 137 153 159 163 164 165 165 162 160 158 157 154 152 148 147 145 142 139 136 133 130 127 125
209 208 228 232 230 226 218 207 218 222 219 217 221 209 175 149 104 132 144 149 149 148 151 149 151 146 147 147 161 168 170 169 166 164 162 161 163 161 159 156 153 152 149 145 144 142 138 132 127
228 210 221 225 228 229 203 195 218 229 222 211 223 218 195 156 130 136 139 149 153 156 163 166 164 164 161 162 153 170 176 175 172 167 164 162 163 164 163 163 158 157 155 152 152 146 142 137 130
207 216 223 219 221 217 181 196 202 229 211 204 224 276 15 122 149 150 154 167 174 176 179 177 184 184 178 172 159 164 180 180 179 174 164 167 173 173 172 170 163 162 160 159 156 151 145 141 136
201 220 227 224 222 206 186 207 199 195 211 219 214 220 123 154 169 174 183 191 195 196 194 193 198 196 185 178 173 180 190 191 191 185 177 180 179 177 173 163 164 163 162 163 160 152 155 165 160
199 223 217 213 221 224 211 219 225 216 230 232 233 225 195 182 187 195 202 205 206 206 205 204 205 202 196 191 187 183 192 197 196 193 185 182 180 178 177 173 173 174 172 174 166 172 180 182 175
195 218 223 224 238 237 234 229 234 241 249 292 278 231 188 198 205 210 215 218 217 216 219 216 212 210 209 200 196 193 201 211 200 194 192 186 183 184 182 184 184 186 183 184 185 188 187 187 186
210 208 219 241 238 256 246 243 256 257 256 271 274 223 209 213 221 229 235 230 227 224 225 222 219 216 212 205 205 199 206 219 211 200 197 194 192 190 185 185 187 189 188 189 193 192 190 193 195
190 193 219 258 251 262 246 255 249 251 253 246 246 240 237 232 233 240 248 246 239 236 232 224 221 222 213 206 206 207 211 217 215 205 203 201 199 194 190 193 194 194 196 198 199 198 195 199 199
163 196 235 241 238 234 240 251 234 242 243 244 246 247 255 261 257 256 258 261 255 249 237 224 212 212 214 215 213 215 214 220 219 212 206 203 204 199 194 197 200 198 197 200 199 199 199 201 201
177 207 230 216 228 226 228 251 226 222 244 254 254 255 265 283 281 283 285 279 277 269 255 230 211 210 214 217 214 213 214 221 220 217 210 205 204 205 199 199 202 200 194 197 199 197 197 201 207
197 221 233 227 211 228 229 256 242 267 263 258 256 256 260 275 292 302 300 295 291 276 258 237 218 212 211 217 214 203 207 220 216 217 213 213 207 202 205 206 202 197 194 196 198 203 200 203 208
212 226 231 232 223 245 243 256 263 269 263 261 267 263 259 265 281 301 306 304 302 285 265 253 236 230 217 203 210 208 210 223 220 220 216 216 213 206 206 209 207 200 197 199 199 202 205 207 203
217 223 239 250 276 262 256 265 267 263 263 263 264 261 258 260 279 299 302 299 306 316 281 268 266 261 228 204 207 219 230 228 226 228 227 220 216 210 211 209 205 205 207 207 204 203 203 204 195
217 227 244 263 278 271 272 272 266 253 252 255 257 259 263 267 264 283 287 280 289 291 292 277 260 253 246 237 227 230 233 230 229 230 224 223 221 215 214 211 207 207 213 210 205 203 204 208 201
230 238 245 261 288 259 281 267 240 234 233 243 251 256 261 261 268 276 281 278 277 282 284 281 265 251 250 243 228 213 218 221 224 225 229 232 229 228 224 219 217 211 213 215 210 205 207 209 208
236 231 239 247 254 255 260 271 240 222 228 240 247 251 256 261 268 280 288 290 287 284 281 272 268 267 256 236 224 221 225 232 239 235 237 242 238 237 235 228 223 221 217 219 218 211 210 209 211
228 203 227 240 243 260 237 252 255 213 237 243 242 247 251 261 268 279 284 287 291 291 287 276 269 264 254 238 232 225 231 238 239 237 240 242 242 241 243 235 229 227 225 224 221 217 214 214 215
157 140 158 202 222 246 231 237 261 221 233 238 237 249 258 270 283 292 299 301 302 305 300 289 278 275 268 251 242 233 230 230 230 233 239 243 245 241 245 243 234 229 227 225 223 220 218 218 221
189 190 210 218 225 243 197 234 253 239 225 239 252 261 273 280 290 299 307 308 307 306 303 294 288 287 280 262 252 248 244 235 233 234 235 240 249 253 250 248 240 232 230 227 224 224 223 220 223
204 214 223 237 246 254 211 238 252 227 249 257 259 262 271 289 297 299 305 307 304 303 300 297 292 289 287 273 266 262 261 247 244 242 240 242 248 252 252 249 246 240 236 232 228 227 227 225 225
188 212 247 233 265 263 243 251 263 229 238 242 251 266 281 296 302 305 313 312 308 304 300 295 290 289 288 282 276 267 264 255 252 251 246 247 252 254 253 247 247 246 241 236 233 231 229 229 227
231 175 180 203 231 252 254 250 244 213 221 226 245 274 298 305 308 312 317 319 317 314 309 304 295 291 291 285 279 274 266 268 262 259 253 251 254 255 255 248 245 245 244 241 237 236 231 230 231
183 187 203 206 239 245 260 253 204 214 216 234 264 287 299 302 305 311 316 318 316 316 316 308 303 299 297 292 280 274 270 268 267 260 260 257 256 256 255 250 244 242 242 240 237 236 233 233 235
224 208 194 214 224 234 258 266 87 215 242 256 279 298 306 308 311 314 315 315 315 314 314 310 303 298 295 292 287 278 268 261 260 261 265 265 260 258 258 256 247 246 242 240 237 236 234 233 236
Height
1509 1510 1512 1514 1513 1510 1505 1502 1503 1506 1507 1510 1511 1510 1509 1509 1510 1516 1517 1515 1516 1518 1519 1521 1523 1525 1526 1528 1529 1530 1530 1531 1532 1533 1534 1534 1535 1535 1536 1537 1537 1538 1538 1539 1539 1539 1539 1540 1540
1509 1510 1513 1513 1508 1507 1503 1501 1504 1505 1508 1511 1512 1511 1511 1512 1514 1515 1514 1515 1516 1518 1519 1521 1523 1525 1526 1528 1529 1530 1531 1532 1532 1533 1534 1535 1535 1536 1537 1537 1538 1538 1539 1539 1540 1540 1540 1541 1541
1509 1510 1513 1509 1505 1501 1499 1501 1503 1507 1510 1511 1511 1512 1512 1513 1515 1515 1514 1515 1517 1518 1520 1521 1523 1524 1526 1528 1529 1530 1531 1532 1533 1533 1534 1535 1536 1536 1537 1538 1538 1539 1540 1540 1540 1541 1541 1541 1542
1509 1512 1512 1507 1503 1499 1500 1503 1506 1508 1510 1511 1511 1512 1513 1514 1514 1514 1514 1515 1517 1518 1520 1521 1522 1524 1526 1527 1529 1530 1531 1532 1533 1534 1534 1535 1536 1537 1537 1538 1539 1539 1540 1540 1541 1541 1542 1542 1542
1509 1510 1507 1504 1500 1500 1503 1506 1507 1506 1507 1510 1511 1510 1513 1513 1512 1513 1514 1515 1517 1518 1520 1521 1522 1524 1525 1527 1528 1529 1530 1531 1533 1533 1534 1535 1536 1537 1537 1538 1539 1539 1540 1541 1541 1541 1542 1542 1543
1509 1506 1502 1499 1497 1500 1504 1507 1507 1506 1507 1509 1511 1510 1512 1512 1512 1513 1514 1515 1517 1518 1519 1521 1522 1523 1525 1526 1527 1529 1530 1531 1532 1533 1534 1535 1536 1536 1537 1538 1539 1539 1540 1541 1541 1542 1542 1543 1543
1507 1503 1498 1496 1496 1499 1503 1506 1506 1505 1506 1509 1510 1510 1511 1512 1512 1513 1514 1515 1516 1518 1519 1520 1521 1523 1524 1525 1526 1528 1529 1530 1531 1532 1533 1534 1535 1536 1537 1537 1538 1539 1540 1540 1541 1542 1542 1543 1543
1505 1503 1500 1498 1497 1497 1503 1505 1506 1506 1506 1509 1510 1509 1510 1511 1511 1512 1513 1514 1515 1517 1518 1519 1520 1522 1523 1524 1525 1526 1528 1529 1530 1531 1533 1534 1535 1535 1536 1537 1538 1539 1539 1540 1541 1541 1542 1542 1543
1504 1503 1497 1496 1497 1497 1503 1504 1506 1506 1507 1507 1508 1509 1509 1509 1510 1511 1512 1513 1514 1515 1516 1518 1519 1520 1522 1523 1524 1525 1526 1528 1529 1530 1531 1532 1534 1535 1535 1536 1537 1538 1539 1539 1540 1541 1541 1542 1543
1503 1498 1495 1498 1499 1500 1502 1503 1505 1505 1505 1506 1507 1507 1507 1508 1509 1510 1511 1512 1513 1514 1515 1516 1517 1518 1520 1521 1522 1523 1524 1526 1527 1528 1530 1531 1532 1533 1534 1535 1536 1537 1538 1539 1539 1540 1541 1542 1542
1500 1497 1499 1502 1502 1503 1503 1504 1505 1504 1503 1504 1505 1506 1506 1507 1508 1508 1509 1511 1511 1512 1513 1514 1515 1516 1517 1519 1520 1521 1522 1523 1525 1526 1527 1529 1530 1531 1532 1533 1534 1535 1536 1537 1538 1539 1540 1541 1541
1500 1501 1502 1502 1503 1503 1503 1503 1504 1503 1503 1504 1504 1505 1504 1505 1506 1507 1507 1509 1510 1510 1511 1512 1513 1514 1515 1516 1517 1518 1519 1521 1522 1523 1525 1526 1527 1528 1530 1531 1532 1533 1534 1535 1536 1537 1538 1539 1540
1499 1501 1503 1503 1503 1503 1503 1503 1503 1502 1502 1502 1502 1503 1503 1503 1504 1505 1506 1506 1507 1508 1509 1509 1510 1512 1513 1514 1515 1516 1517 1518 1519 1521 1522 1523 1524 1525 1527 1528 1529 1530 1532 1533 1534 1535 1536 1537 1538
1500 1501 1502 1502 1502 1503 1502 1502 1502 1500 1501 1501 1501 1501 1501 1501 1502 1502 1503 1504 1504 1505 1506 1506 1507 1508 1510 1511 1512 1513 1514 1514 1516 1517 1519 1520 1521 1522 1523 1525 1527 1528 1529 1530 1532 1533 1533 1534 1535
1501 1501 1500 1501 1501 1502 1502 1499 1498 1499 1500 1500 1500 1500 1499 1499 1500 1500 1500 1501 1502 1503 1503 1504 1505 1506 1507 1508 1509 1509 1510 1511 1513 1514 1516 1517 1518 1519 1520 1522 1523 1525 1526 1528 1529 1530 1531 1532 1532
1499 1497 1495 1497 1500 1500 1502 1492 1495 1497 1498 1498 1498 1498 1497 1497 1497 1497 1498 1499 1499 1500 1501 1501 1502 1503 1504 1505 1505 1506 1507 1508 1509 1510 1512 1513 1514 1516 1517 1518 1520 1521 1523 1524 1525 1527 1528 1529 1530
1495 1492 1491 1495 1498 1498 1497 1490 1494 1496 1496 1496 1496 1496 1495 1495 1495 1495 1495 1496 1496 1497 1498 1499 1499 1500 1501 1502 1502 1503 1504 1505 1506 1507 1508 1509 1511 1512 1513 1515 1516 1518 1519 1520 1522 1523 1524 1525 1526
1490 1488 1491 1491 1496 1497 1495 1491 1492 1494 1494 1494 1494 1493 1493 1492 1492 1492 1493 1493 1493 1494 1495 1496 1496 1497 1497 1498 1499 1500 1501 1501 1502 1503 1504 1505 1507 1508 1509 1511 1512 1514 1515 1516 1518 1519 1520 1522 1523
1490 1491 1490 1492 1497 1497 1492 1490 1490 1492 1492 1492 1491 1491 1491 1490 1490 1490 1490 1490 1490 1491 1491 1492 1493 1493 1493 1494 1495 1496 1497 1497 1498 1499 1500 1501 1502 1504 1505 1507 1508 1509 1511 1512 1514 1515 1516 1518 1519
1492 1491 1490 1494 1497 1496 1492 1489 1487 1489 1489 1489 1489 1488 1488 1488 1488 1487 1487 1487 1487 1488 1488 1489 1489 1489 1490 1490 1492 1492 1493 1494 1494 1495 1496 1497 1498 1499 1500 1502 1503 1505 1506 1508 1509 1511 1512 1513 1515
1493 1491 1491 1493 1496 1495 1494 1483 1482 1484 1487 1487 1487 1486 1486 1486 1485 1485 1485 1484 1485 1485 1485 1486 1486 1486 1486 1487 1488 1489 1489 1490 1491 1491 1492 1493 1494 1495 1496 1497 1499 1500 1502 1503 1504 1506 1507 1508 1510
1491 1494 1494 1495 1493 1489 1493 1479 1475 1479 1482 1483 1484 1484 1483 1483 1483 1482 1482 1482 1482 1482 1483 1483 1483 1483 1483 1483 1483 1484 1484 1485 1486 1487 1488 1489 1490 1491 1492 1493 1494 1495 1497 1498 1499 1501 1502 1504 1505
1492 1495 1496 1495 1493 1493 1492 1489 1470 1477 1478 1478 1480 1481 1481 1481 1481 1480 1479 1479 1479 1479 1479 1479 1479 1479 1480 1480 1480 1480 1481 1482 1482 1483 1484 1485 1485 1486 1487 1488 1489 1491 1492 1493 1494 1496 1497 1498 1500
1496 1497 1497 1496 1493 1490 1487 1485 1466 1470 1473 1475 1478 1479 1479 1479 1479 1478 1477 1477 1477 1476 1476 1475 1475 1475 1476 1476 1476 1476 1477 1477 1478 1478 1479 1480 1481 1481 1482 1483 1484 1485 1487 1488 1489 1490 1492 1493 1495
1494 1492 1488 1486 1484 1476 1486 1483 1469 1469 1474 1475 1477 1477 1478 1477 1477 1475 1475 1474 1473 1472 1472 1472 1472 1472 1472 1472 1472 1473 1473 1473 1474 1474 1475 1475 1476 1477 1478 1479 1479 1480 1482 1483 1484 1485 1487 1487 1489
1490 1487 1483 1478 1473 1470 1487 1477 1467 1472 1475 1476 1476 1476 1476 1475 1474 1473 1472 1471 1470 1469 1468 1468 1468 1468 1468 1468 1468 1469 1469 1469 1469 1470 1470 1471 1472 1472 1473 1474 1474 1475 1477 1478 1478 1479 1481 1482 1483
1489 1487 1488 1486 1491 1482 1469 1470 1469 1471 1472 1474 1474 1474 1474 1473 1472 1471 1470 1469 1467 1466 1465 1465 1464 1464 1464 1464 1465 1465 1465 1465 1465 1466 1466 1467 1467 1468 1468 1469 1469 1470 1471 1472 1473 1474 1475 1476 1478
1489 1488 1489 1486 1480 1469 1462 1464 1460 1465 1467 1470 1472 1472 1472 1471 1470 1469 1468 1466 1465 1464 1463 1462 1461 1461 1461 1461 1461 1461 1461 1462 1462 1462 1462 1462 1463 1463 1463 1464 1465 1465 1466 1467 1468 1469 1469 1471 1472
1490 1491 1487 1484 1482 1471 1461 1456 1460 1463 1466 1468 1470 1470 1470 1470 1469 1467 1466 1465 1463 1462 1460 1459 1458 1458 1457 1457 1457 1457 1457 1458 1457 1457 1458 1458 1458 1459 1459 1460 1460 1460 1461 1462 1463 1463 1464 1465 1466
1486 1484 1485 1482 1483 1481 1469 1461 1464 1465 1467 1468 1469 1469 1469 1468 1467 1465 1464 1462 1461 1459 1458 1457 1456 1455 1454 1454 1453 1453 1453 1453 1453 1453 1453 1454 1454 1454 1454 1455 1455 1455 1456 1457 1458 1458 1459 1460 1461